DAL678 KBIS-KMSP

Flight info

Callsign DAL678
Flight time N/A
Altitude 35000
Route BIS TTAIL BAINY4
Aircraft A21N/M-SDE3FGHIRWY/LB1

Departure

Time 2026-04-25 14:06
Airport Bismarck Municipal Airport (KBIS)

Arrival

Time N/A
Airport Minneapolis–Saint Paul International Airport / Wold–Chamberlain Field (KMSP)
Time Latitude Longitude Altitude Speed Heading
2026-04-25 14:01 46.77683 -100.75700 1654 ft 0 kts 182°
2026-04-25 14:02 46.77674 -100.75687 1654 ft 9 kts 114°
2026-04-25 14:02 46.77696 -100.75665 1654 ft 5 kts 355°
2026-04-25 14:02 46.77708 -100.75667 1654 ft 5 kts 351°
2026-04-25 14:03 46.77759 -100.75710 1654 ft 6 kts 320°
2026-04-25 14:03 46.77793 -100.75755 1654 ft 6 kts 317°
2026-04-25 14:03 46.77831 -100.75806 1655 ft 7 kts 317°
2026-04-25 14:03 46.77883 -100.75874 1655 ft 14 kts 316°
2026-04-25 14:04 46.77958 -100.75975 1655 ft 14 kts 317°
2026-04-25 14:04 46.78034 -100.76075 1654 ft 14 kts 318°
2026-04-25 14:04 46.78118 -100.76186 1655 ft 20 kts 317°
2026-04-25 14:04 46.78220 -100.76318 1655 ft 18 kts 322°
2026-04-25 14:05 46.78319 -100.76266 1655 ft 17 kts 50°
2026-04-25 14:05 46.78351 -100.76131 1656 ft 14 kts 122°
2026-04-25 14:05 46.78229 -100.75960 1656 ft 52 kts 137°
2026-04-25 14:05 46.77797 -100.75385 1656 ft 116 kts 138°
2026-04-25 14:06 46.77050 -100.74391 1653 ft 170 kts 138°
2026-04-25 14:06 46.76179 -100.73183 2246 ft 172 kts 136°
2026-04-25 14:06 46.75478 -100.71771 2793 ft 183 kts 107°
2026-04-25 14:06 46.75463 -100.69875 3231 ft 198 kts 77°
2026-04-25 14:07 46.75780 -100.67821 3684 ft 214 kts 73°
2026-04-25 14:07 46.76047 -100.65630 4135 ft 231 kts 83°
2026-04-25 14:07 46.76143 -100.63210 4470 ft 249 kts 87°
2026-04-25 14:07 46.76174 -100.60607 4778 ft 266 kts 89°
2026-04-25 14:08 46.76178 -100.57816 5120 ft 282 kts 89°
2026-04-25 14:08 46.76172 -100.54938 5662 ft 290 kts 89°
2026-04-25 14:08 46.76164 -100.52004 6335 ft 293 kts 89°
2026-04-25 14:08 46.76157 -100.49046 7000 ft 296 kts 90°
2026-04-25 14:09 46.76150 -100.45997 7600 ft 303 kts 90°
2026-04-25 14:09 46.76143 -100.42930 8175 ft 309 kts 90°
2026-04-25 14:09 46.76135 -100.39774 8769 ft 314 kts 90°
2026-04-25 14:09 46.76128 -100.37645 9156 ft 318 kts 90°
2026-04-25 14:10 46.76115 -100.33316 9901 ft 326 kts 92°
2026-04-25 14:10 46.76104 -100.29976 10366 ft 336 kts 92°
2026-04-25 14:10 46.76089 -100.26492 10673 ft 351 kts 92°
2026-04-25 14:10 46.76070 -100.22900 11189 ft 357 kts 92°
2026-04-25 14:11 46.76055 -100.19311 11812 ft 359 kts 93°
2026-04-25 14:11 46.76040 -100.15668 12450 ft 361 kts 93°
2026-04-25 14:11 46.76020 -100.12036 13028 ft 363 kts 94°
2026-04-25 14:11 46.76001 -100.08319 13620 ft 366 kts 94°
2026-04-25 14:12 46.75980 -100.04610 14169 ft 369 kts 94°
2026-04-25 14:12 46.75957 -100.00900 14704 ft 372 kts 94°
2026-04-25 14:12 46.75932 -99.97113 15255 ft 374 kts 94°
2026-04-25 14:12 46.75905 -99.93319 15769 ft 377 kts 94°
2026-04-25 14:13 46.75877 -99.89497 16287 ft 379 kts 94°
2026-04-25 14:13 46.75847 -99.85653 16775 ft 382 kts 94°
2026-04-25 14:13 46.75817 -99.81789 17254 ft 385 kts 94°
2026-04-25 14:13 46.75787 -99.77914 17735 ft 387 kts 94°
2026-04-25 14:14 46.75755 -99.73997 18215 ft 389 kts 94°
2026-04-25 14:14 46.75720 -99.70048 18668 ft 391 kts 94°
2026-04-25 14:14 46.75686 -99.66092 19126 ft 394 kts 94°
2026-04-25 14:14 46.75650 -99.62084 19580 ft 396 kts 95°
2026-04-25 14:15 46.75612 -99.58057 20016 ft 398 kts 95°
2026-04-25 14:15 46.75598 -99.56720 20159 ft 399 kts 94°
2026-04-25 14:15 46.75528 -99.50005 20857 ft 403 kts 94°
2026-04-25 14:15 46.75483 -99.45943 21261 ft 405 kts 95°
2026-04-25 14:16 46.75437 -99.41844 21665 ft 407 kts 94°
2026-04-25 14:16 46.75389 -99.37717 22040 ft 410 kts 94°
2026-04-25 14:16 46.75340 -99.33539 22422 ft 412 kts 95°
2026-04-25 14:16 46.75291 -99.29381 22799 ft 414 kts 95°
2026-04-25 14:17 46.75238 -99.25185 23170 ft 416 kts 95°
2026-04-25 14:17 46.75184 -99.20992 23522 ft 418 kts 95°
2026-04-25 14:17 46.75126 -99.16710 23862 ft 420 kts 95°
2026-04-25 14:17 46.75068 -99.12522 24219 ft 421 kts 95°
2026-04-25 14:18 46.75008 -99.08213 24580 ft 423 kts 95°
2026-04-25 14:18 46.74948 -99.03968 24935 ft 425 kts 95°
2026-04-25 14:18 46.74885 -98.99655 25281 ft 426 kts 95°
2026-04-25 14:18 46.74818 -98.95320 25616 ft 428 kts 95°
2026-04-25 14:19 46.74752 -98.91019 25935 ft 431 kts 95°
2026-04-25 14:19 46.74683 -98.86623 26244 ft 433 kts 95°
2026-04-25 14:19 46.74611 -98.82253 26560 ft 435 kts 96°
2026-04-25 14:19 46.74538 -98.77891 26862 ft 437 kts 96°
2026-04-25 14:20 46.74462 -98.73430 27159 ft 439 kts 96°
2026-04-25 14:20 46.74411 -98.70493 27364 ft 440 kts 96°
2026-04-25 14:20 46.74304 -98.64526 27746 ft 443 kts 96°
2026-04-25 14:20 46.74223 -98.60090 28043 ft 445 kts 95°
2026-04-25 14:21 46.74139 -98.55593 28329 ft 447 kts 96°
2026-04-25 14:21 46.74054 -98.51078 28621 ft 448 kts 96°
2026-04-25 14:21 46.73966 -98.46505 28898 ft 450 kts 96°
2026-04-25 14:21 46.73877 -98.41986 29170 ft 452 kts 96°
2026-04-25 14:22 46.73784 -98.37402 29437 ft 454 kts 96°
2026-04-25 14:22 46.73688 -98.32789 29700 ft 456 kts 96°
2026-04-25 14:22 46.73591 -98.28159 29945 ft 458 kts 96°
2026-04-25 14:22 46.73491 -98.23518 30195 ft 460 kts 96°
2026-04-25 14:23 46.73391 -98.18913 30444 ft 461 kts 96°
2026-04-25 14:23 46.73286 -98.14210 30694 ft 463 kts 96°
2026-04-25 14:23 46.73181 -98.09579 30897 ft 465 kts 96°
2026-04-25 14:23 46.73072 -98.04853 31031 ft 466 kts 96°
2026-04-25 14:24 46.72961 -98.00127 31042 ft 466 kts 96°
2026-04-25 14:24 46.72739 -97.90761 31046 ft 466 kts 96°
2026-04-25 14:25 46.72504 -97.81341 31057 ft 467 kts 96°
2026-04-25 14:25 46.72263 -97.71901 31064 ft 466 kts 96°
2026-04-25 14:26 46.72014 -97.62530 31056 ft 467 kts 96°
2026-04-25 14:26 46.71756 -97.53088 31056 ft 468 kts 96°
2026-04-25 14:27 46.71491 -97.43668 31055 ft 469 kts 96°
2026-04-25 14:27 46.71216 -97.34206 31062 ft 469 kts 97°
2026-04-25 14:28 46.70934 -97.24720 31068 ft 469 kts 97°
2026-04-25 14:28 46.70644 -97.15244 31068 ft 469 kts 97°
2026-04-25 14:29 46.70344 -97.05756 31069 ft 471 kts 97°
2026-04-25 14:29 46.70039 -96.96265 31072 ft 471 kts 96°
2026-04-25 14:30 46.69725 -96.86769 31069 ft 472 kts 96°
2026-04-25 14:30 46.68910 -96.72563 31070 ft 469 kts 104°
2026-04-25 14:31 46.67376 -96.63419 31075 ft 463 kts 113°
2026-04-25 14:31 46.65055 -96.54797 31069 ft 458 kts 119°
2026-04-25 14:32 46.62500 -96.46335 31065 ft 459 kts 120°
2026-04-25 14:32 46.59980 -96.37957 31058 ft 452 kts 119°
2026-04-25 14:33 46.57468 -96.29577 31054 ft 453 kts 120°
2026-04-25 14:33 46.56217 -96.25407 31051 ft 452 kts 120°